Regional Weather Roundup
Issued by NWS

Home | Current Version | Previous Version | Text Only | Print | Product List | Glossary On
Versions: 1 2 3 4 5 6 7 8 9 10 11 12 13 14 15 16 17 18 19 20 21 22 23 24 25 26 27 28 29 30 31 32 33 34 35 36 37 38 39 40 41 42 43 44 45 46 47 48 49 50
615
ASUS43 KMKX 010600
RWRWI

WISCONSIN REGIONAL WEATHER ROUNDUP
NATIONAL WEATHER SERVICE MILWAUKEE/SULLIVAN WI
100 AM CDT SUN MAY 01 2016

NOTE: "FAIR" INDICATES FEW OR NO CLOUDS BELOW 12,000 FEET WITH NO
SIGNIFICANT WEATHER AND/OR OBSTRUCTIONS TO VISIBILITY.

WIZ001-002-006>008-014>016-023>028-010700-
NORTHWEST WISCONSIN

CITY           SKY/WX    TMP DP  RH WIND       PRES   REMARKS
SUPERIOR ARPT  CLOUDY    38  29  72 NE7       30.23S WCI  32
ASHLAND        CLOUDY    37  33  85 NE9       30.21F WCI  30
6HR MIN TEMP:  36; 6HR MAX TEMP:  44;

HAYWARD        CLOUDY    37  31  78 NE7       30.17S WCI  32
6HR MIN TEMP:  37; 6HR MAX TEMP:  46;

SIREN          PTCLDY    40  31  68 NE8       30.17R
CUMBERLAND     CLOUDY    41  32  70 NE10      30.13S
RICE LAKE      CLOUDY    44  32  63 NE13      30.14S
CHETEK         CLOUDY    44  33  63 NE10G18   30.12S
LADYSMITH      CLOUDY    44  31  61 NE10G17   30.15S
6HR MIN TEMP:  44; 6HR MAX TEMP:  55;

EAU CLAIRE     NOT AVBL
MENOMONIE      CLOUDY    48  34  57 NE13      30.10R
NEW RICHMOND   CLOUDY    44  32  63 NE9G16    30.12S
OSCEOLA        CLOUDY    43  32  64 N7        30.16S
$$

WIZ003>005-009-010-017-018-010700-
NORTH CENTRAL WISCONSIN

CITY           SKY/WX    TMP DP  RH WIND       PRES   REMARKS
MANITOWISH WTR CLOUDY    37  34  87 NE8       30.15S WCI  31
ARBOR VITAE    PTCLDY    39  33  78 NE6       30.14S WCI  35
WOODRUFF       PTCLDY    39  33  78 NE6       30.14S WCI  35
RHINELANDER    PTCLDY    39  31  72 N6        30.13F WCI  35
6HR MIN TEMP:  39; 6HR MAX TEMP:  52;

EAGLE RIVER    CLOUDY    37  30  78 NE7       30.14R WCI  31
LAND O LAKES   PTCLDY    36  32  85 N6        30.15S WCI  32
PHILLIPS       CLOUDY    39  31  73 NE9       30.14S WCI  33
6HR MIN TEMP:  39; 6HR MAX TEMP:  53;

TOMAHAWK       CLOUDY    41  31  68 NE7       30.13S
MEDFORD        MOCLDY    43  33  66 NE13      30.09S
MERRILL        CLOUDY    45  32  60 NE8       30.11R
$$

WIZ029-030-035-036-043>047-010700-
CENTRAL WISCONSIN

CITY           SKY/WX    TMP DP  RH WIND       PRES   REMARKS
WAUSAU         CLOUDY    48  30  49 NE6       30.07S
6HR MIN TEMP:  48; 6HR MAX TEMP:  54;

MOSINEE        CLOUDY    45  30  57 NE14      30.08S
MARSHFIELD     CLOUDY    48  31  51 E15       30.06S
6HR MIN TEMP:  48; 6HR MAX TEMP:  51; 6HR PCP: TRACE;

STEVENS POINT  CLOUDY    45  31  58 NE9       30.07S
WAUPACA        LGT RAIN  49  32  52 NE9       30.06R
6HR MIN TEMP:  48; 6HR MAX TEMP:  52;

WAUTOMA        NOT AVBL
WISC RAPIDS    CLOUDY    48  32  53 E13G21    30.07S
6HR MIN TEMP:  47; 6HR MAX TEMP:  50; 6HR PCP:  0.01;

CAMP DOUGLAS   NOT AVBL
$$

WIZ011>013-019>022-031-037>040-048>050-010700-
NORTHEAST WISCONSIN

CITY           SKY/WX    TMP DP  RH WIND       PRES   REMARKS
ANTIGO         CLOUDY    42  31  65 NE14G20   30.09S
SHAWANO        CLOUDY    47  32  56 NE12G18   30.09R
6HR MIN TEMP:  47; 6HR MAX TEMP:  53;

OCONTO         CLOUDY    44  33  64 NE9       30.07F
STURGEON BAY   CLOUDY    45  32  61 NE12      30.08F
6HR MIN TEMP:  45; 6HR MAX TEMP:  52;

GREEN BAY      CLOUDY    45  35  68 NE25G32   30.07R
6HR MIN TEMP:  45; 6HR MAX TEMP:  49; 6HR PCP: TRACE;

MANITOWOC      NOT AVBL
APPLETON       CLOUDY    45  32  61 NE15G22   30.05R
CLINTONVILLE   CLOUDY    46  30  53 NE9G16    30.07S
OSHKOSH        CLOUDY    45  37  73 NE13G22   30.04R
6HR MIN TEMP:  45; 6HR MAX TEMP:  48; 6HR PCP:  0.04;

$$

WIZ032>034-041-042-053>061-010700-
SOUTHWEST WISCONSIN

CITY           SKY/WX    TMP DP  RH WIND       PRES   REMARKS
LA CROSSE      LGT RAIN  45  40  82 N5        30.06S
6HR MIN TEMP:  44; 6HR MAX TEMP:  47; 6HR PCP:  0.17;

SPARTA         DRIZZLE   44  39  82 NE7       30.06R
VIROQUA        CLOUDY    42  40  93 NE9       30.02S
BOSCOBEL       CLOUDY    46  42  86 NE5       30.01R
6HR MIN TEMP:  45; 6HR MAX TEMP:  46; 6HR PCP:  0.03;

PRAIRIE DU CHI CLOUDY    45  39  81 N6        30.00S
PLATTEVILLE    CLOUDY    44  43  97 NE15      29.96S
$$

WIZ056-057-062-063-064-067-068-010700-
SOUTH CENTRAL WISCONSIN

CITY           SKY/WX    TMP DP  RH WIND       PRES   REMARKS
REEDSBURG      CLOUDY    43  41  92 NE5       30.03R
BARABOO/DELLS  CLOUDY    42  40  92 NE3       30.03R
LONE ROCK      NOT AVBL
MINERAL POINT  CLOUDY    43  43 100 NE14      29.97S
MADISON        CLOUDY    44  41  89 NE13      29.99F
6HR MIN TEMP:  43; 6HR MAX TEMP:  44; 6HR PCP:  0.07;

MIDDLETON      CLOUDY    45  41  87 NE12      30.00S
WATERTOWN      CLOUDY    44  44 100 NE9       29.99S
MONROE         CLOUDY    43  41  93 NE16      29.95S FOG
JANESVILLE     CLOUDY    45  45 100 NE9       29.95S FOG
$$

WIZ051-052-058>065-066-070>072-010700-
SOUTHEAST WISCONSIN

CITY           SKY/WX    TMP DP  RH WIND       PRES   REMARKS
MILWAUKEE      CLOUDY    44  41  89 NE16G24   29.97S
6HR MIN TEMP:  42; 6HR MAX TEMP:  44; 6HR PCP:  0.22;

WAUKESHA       CLOUDY    41  41 100 NE12G18   29.99S
MILWAUKEE/TIMM CLOUDY    43  39  87 NE12G17   30.00R
RACINE         CLOUDY    43  41  93 NE16      29.97F
6HR MIN TEMP:  42; 6HR MAX TEMP:  44; 6HR PCP:  0.18;

BURLINGTON     CLOUDY    43  43  99 NE10G16   29.96S FOG
KENOSHA        CLOUDY    45  42  89 NE17G23   29.94F FOG
6HR MIN TEMP:  43; 6HR MAX TEMP:  45; 6HR PCP:  0.05;

FOND DU LAC    CLOUDY    45  37  73 NE10      30.04S
6HR MIN TEMP:  44; 6HR MAX TEMP:  47; 6HR PCP:  0.10;

SHEBOYGAN      CLOUDY    42  37  82 N7        30.03R
6HR MIN TEMP:  41; 6HR MAX TEMP:  45; 6HR PCP:  0.10;

WEST BEND      DRIZZLE   43  41  93 NE7       30.01R
JUNEAU         RAIN      42  41  94 N8        30.03R
$$

LSZ147-162-010700-
LAKE SUPERIOR

STATION/POSITION TIME  TEMP    WIND        PRES    WAVE
                       AIR SEA DIR/SP/G            HT/PER
                 (UTC) (F)     (DEG/KT/KT) (MB)    (FT/S)
W MID LAKE BUOY  0450   40 37   40/ 14/ 16 1024.3F   1/ 5
DEVILS ISLAND    0500   38      40/ 11/ 12 1024.4F
PORT WING        0500   38      40/ 11/ 12 1023.7S
SAXON HARBOR     0540   35      CALM  /  1 1022.4F
$$

LMZ867-665-643>646-010700-
LAKE MICHIGAN

STATION/POSITION TIME  TEMP    WIND        PRES    WAVE
                       AIR SEA DIR/SP/G            HT/PER
                 (UTC) (F)     (DEG/KT/KT) (MB)    (FT/S)
CHAMBERS ISLAND  0500   42     360/ 14/ 17 1019.0F
N MID LAKE BUOY  0450   41 39   20/ 16/ 17 1018.6F   2/ 4
NORTHPORT PIER   0500   42      10/ 13/ 15 1018.6F
ALGOMA LAKESHORE 0445           40/ 18/ 23   N/A
KEWAUNEE LAKESHO 0500   42      40/ 15/ 20 1017.0R
SHEBOYGAN LAKESH 0500   42      10/ 11/ 13 1017.5F
PORT WASHINGTON  0500   46      40/ 13/ 16 1016.9F
S MID LAKE BUOY  0450   43 40   60/ 16/ 17 1014.0F   3/ 4
KENOSHA   LAKESH 0500   43      40/ 16/ 19 1014.2S
$$

TC  - TEMPERATURE IN CELSIUS
VSB - VISIBILITY IN STATUTE MILES
WCI - WIND CHILL INDEX
HX  - HEAT INDEX





USA.gov is the U.S. government's official web portal to all federal, state and local government web resources and services.